User: anonymous   Login
Location: Brno
(49.2000°N, 16.6330°E)
Time: 18:34:12
(UTC+02:00)
Language:

Cosmos 332 Rocket - Orbit

View from above orbital plane
View from above orbital plane
View from above satellite
View from above satellite

Ground track
Ground track

The orbit data is extracted from the following two-line orbital elements,

1  4370U 70028B   15245.55050828 +.00000212 +00000-0 +50700-4 0  9992
2  4370 074.0378 255.6959 0016317 335.6528 024.3865 14.59606377916604
Epoch (UTC): 02 September 2015 13:12:43
Eccentricity: 0.0016317
inclination: 74.0378°
perigee height: 683 km
apogee height: 706 km
right ascension of ascending node: 255.6959°
argument of perigee: 335.6528°
revolutions per day: 14.59606377
mean anomaly at epoch: 24.3865°
orbit number at epoch: 91660

The dashed part of the orbit path shows where the satellite is in the earth's shadow,  

DLR